| time (UTC) | temp F | wind direction | speed MPH | gust MPH | rain 1hr in | rain 24hr in | rain mn in | humidity % | barometer mb |
| 20260506025623 | 69 | 355 | 0.0 | 0.0 | 0.00 | 0.00 | 0.00 | 94 | 1017.5 |
| 20260506025119 | 70 | 355 | 0.0 | 0.0 | 0.00 | 0.00 | 0.00 | 94 | 1017.5 |
| 20260506024617 | 70 | 355 | 0.0 | 0.0 | 0.00 | 0.00 | 0.00 | 93 | 1017.5 |
| 20260506024113 | 70 | 357 | 0.0 | 0.0 | 0.00 | 0.00 | 0.00 | 93 | 1017.2 |
| 20260506023609 | 70 | 357 | 0.0 | 0.0 | 0.00 | 0.00 | 0.00 | 92 | 1017.1 |
| 20260506023107 | 70 | 357 | 0.0 | 0.0 | 0.00 | 0.00 | 0.00 | 92 | 1017.3 |
| 20260506022604 | 70 | 7 | 0.0 | 0.0 | 0.00 | 0.00 | 0.00 | 92 | 1017.0 |
| 20260506022101 | 70 | 7 | 0.0 | 0.0 | 0.00 | 0.00 | 0.00 | 92 | 1017.1 |
| 20260506021559 | 70 | 7 | 0.0 | 0.0 | 0.00 | 0.00 | 0.00 | 91 | 1017.2 |
| 20260506021056 | 70 | 7 | 0.0 | 0.0 | 0.00 | 0.00 | 0.00 | 91 | 1017.1 |
| 20260506020553 | 71 | 357 | 0.0 | 0.0 | 0.00 | 0.00 | 0.00 | 91 | 1017.1 |
| 20260506020050 | 71 | 357 | 0.0 | 0.0 | 0.00 | 0.00 | 0.00 | 91 | 1017.3 |
| 20260506015548 | 71 | 357 | 0.0 | 0.0 | 0.00 | 0.00 | 0.00 | 91 | 1017.0 |
| 20260506015044 | 71 | 357 | 0.0 | 0.0 | 0.00 | 0.00 | 0.00 | 90 | 1017.2 |
| 20260506014542 | 71 | 7 | 0.0 | 0.0 | 0.00 | 0.00 | 0.00 | 89 | 1016.9 |
| 20260506014038 | 71 | 7 | 0.0 | 0.0 | 0.00 | 0.00 | 0.00 | 88 | 1017.1 |
| 20260506013536 | 71 | 7 | 0.0 | 0.0 | 0.00 | 0.00 | 0.00 | 87 | 1016.9 |
| 20260506013032 | 72 | 7 | 0.0 | 0.0 | 0.00 | 0.00 | 0.00 | 87 | 1016.9 |
| 20260506012529 | 72 | 7 | 0.0 | 0.0 | 0.00 | 0.00 | 0.00 | 86 | 1016.7 |
| 20260506012026 | 73 | 6 | 0.0 | 0.0 | 0.00 | 0.00 | 0.00 | 86 | 1016.7 |
| 20260506011523 | 73 | 357 | 0.0 | 0.0 | 0.00 | 0.00 | 0.00 | 85 | 1016.7 |
| 20260506011019 | 73 | 357 | 0.0 | 0.0 | 0.00 | 0.00 | 0.00 | 85 | 1016.4 |
| 20260506010519 | 74 | 353 | 0.0 | 0.0 | 0.00 | 0.00 | 0.00 | 83 | 1016.6 |
| 20260506010015 | 75 | 353 | 0.0 | 0.0 | 0.00 | 0.00 | 0.00 | 81 | 1016.7 |
| 20260506005513 | 75 | 357 | 0.0 | 0.0 | 0.00 | 0.00 | 0.00 | 80 | 1016.5 |
| 20260506005008 | 75 | 352 | 0.0 | 0.0 | 0.00 | 0.00 | 0.00 | 80 | 1016.2 |
| 20260506004506 | 75 | 351 | 0.0 | 0.0 | 0.00 | 0.00 | 0.00 | 79 | 1016.2 |
| 20260506004002 | 76 | 350 | 0.0 | 0.0 | 0.00 | 0.00 | 0.00 | 78 | 1016.5 |
| 20260506003458 | 76 | 351 | 0.0 | 0.0 | 0.00 | 0.00 | 0.00 | 78 | 1016.2 |
| 20260506002954 | 76 | 351 | 0.0 | 0.0 | 0.00 | 0.00 | 0.00 | 77 | 1016.1 |
| 20260506002451 | 77 | 333 | 0.0 | 0.0 | 0.00 | 0.00 | 0.00 | 76 | 1016.1 |
| 20260506001946 | 77 | 334 | 0.0 | 0.0 | 0.00 | 0.00 | 0.00 | 75 | 1016.1 |
| 20260506001443 | 77 | 352 | 0.0 | 0.0 | 0.00 | 0.00 | 0.00 | 75 | 1016.3 |
| 20260506000941 | 77 | 6 | 1.0 | 2.0 | 0.00 | 0.00 | 0.00 | 74 | 1016.1 |
| 20260506000438 | 77 | 125 | 1.0 | 2.0 | 0.00 | 0.00 | 0.00 | 73 | 1016.1 |
| 20260505235935 | 78 | 175 | 0.0 | 0.0 | 0.00 | 0.00 | 0.00 | 72 | 1015.9 |
| 20260505235433 | 78 | 347 | 0.0 | 0.0 | 0.00 | 0.00 | 0.00 | 72 | 1016.1 |
| 20260505234929 | 78 | 67 | 0.0 | 0.0 | 0.00 | 0.00 | 0.00 | 71 | 1016.0 |
| 20260505234427 | 78 | 98 | 2.0 | 3.0 | 0.00 | 0.00 | 0.00 | 71 | 1015.8 |
| 20260505233924 | 79 | 126 | 2.0 | 2.0 | 0.00 | 0.00 | 0.00 | 71 | 1016.0 |
| 20260505233421 | 79 | 308 | 1.0 | 1.0 | 0.00 | 0.00 | 0.00 | 70 | 1015.9 |
| 20260505232919 | 79 | 50 | 1.0 | 1.0 | 0.00 | 0.00 | 0.00 | 70 | 1016.1 |
| 20260505232416 | 80 | 84 | 3.0 | 3.0 | 0.00 | 0.00 | 0.00 | 69 | 1016.1 |
| 20260505231913 | 80 | 230 | 2.0 | 3.0 | 0.00 | 0.00 | 0.00 | 69 | 1016.2 |
| 20260505231411 | 80 | 119 | 2.0 | 3.0 | 0.00 | 0.00 | 0.00 | 69 | 1016.1 |
| 20260505230908 | 80 | 139 | 3.0 | 5.0 | 0.00 | 0.00 | 0.00 | 69 | 1016.1 |
| 20260505230406 | 80 | 346 | 2.0 | 2.0 | 0.00 | 0.00 | 0.00 | 68 | 1016.2 |
| 20260505225902 | 81 | 88 | 4.0 | 7.0 | 0.00 | 0.00 | 0.00 | 67 | 1016.2 |
| 20260505225359 | 81 | 32 | 3.0 | 5.0 | 0.00 | 0.00 | 0.00 | 67 | 1016.5 |
| 20260505224854 | 81 | 14 | 2.0 | 5.0 | 0.00 | 0.00 | 0.00 | 67 | 1016.4 |
| 20260505224353 | 81 | 104 | 2.0 | 2.0 | 0.00 | 0.00 | 0.00 | 65 | 1016.3 |
| 20260505223849 | 81 | 102 | 5.0 | 8.0 | 0.00 | 0.00 | 0.00 | 65 | 1016.3 |
| 20260505223346 | 82 | 119 | 7.0 | 15.0 | 0.00 | 0.00 | 0.00 | 64 | 1016.4 |
| 20260505222842 | 82 | 85 | 3.0 | 3.0 | 0.00 | 0.00 | 0.00 | 66 | 1016.5 |
| 20260505222338 | 82 | 90 | 2.0 | 3.0 | 0.00 | 0.00 | 0.00 | 64 | 1016.2 |
| 20260505221836 | 82 | 45 | 2.0 | 2.0 | 0.00 | 0.00 | 0.00 | 65 | 1016.2 |
| 20260505221332 | 82 | 99 | 3.0 | 6.0 | 0.00 | 0.00 | 0.00 | 63 | 1016.3 |
| 20260505220829 | 82 | 92 | 1.0 | 2.0 | 0.00 | 0.00 | 0.00 | 63 | 1016.3 |
| 20260505220326 | 83 | 131 | 3.0 | 6.0 | 0.00 | 0.00 | 0.00 | 61 | 1016.2 |
| 20260505215824 | 83 | 63 | 4.0 | 6.0 | 0.00 | 0.00 | 0.00 | 63 | 1016.1 |
| 20260505215322 | 84 | 87 | 9.0 | 15.0 | 0.00 | 0.00 | 0.00 | 61 | 1016.1 |
| 20260505214820 | 84 | 108 | 3.0 | 6.0 | 0.00 | 0.00 | 0.00 | 61 | 1016.2 |
| 20260505214317 | 84 | 283 | 2.0 | 2.0 | 0.00 | 0.00 | 0.00 | 60 | 1015.9 |
| 20260505213813 | 84 | 105 | 2.0 | 5.0 | 0.00 | 0.00 | 0.00 | 59 | 1015.9 |
| 20260505213312 | 83 | 157 | 3.0 | 3.0 | 0.00 | 0.00 | 0.00 | 59 | 1016.0 |
| 20260505212807 | 83 | 49 | 2.0 | 5.0 | 0.00 | 0.00 | 0.00 | 59 | 1015.8 |
| 20260505212306 | 83 | 107 | 3.0 | 3.0 | 0.00 | 0.00 | 0.00 | 58 | 1015.9 |
| 20260505211801 | 85 | 56 | 2.0 | 3.0 | 0.00 | 0.00 | 0.00 | 57 | 1016.0 |
| 20260505211259 | 84 | 145 | 2.0 | 2.0 | 0.00 | 0.00 | 0.00 | 55 | 1016.0 |
| 20260505210754 | 84 | 355 | 2.0 | 2.0 | 0.00 | 0.00 | 0.00 | 56 | 1015.8 |
| 20260505210252 | 85 | 110 | 2.0 | 2.0 | 0.00 | 0.00 | 0.00 | 59 | 1016.0 |
| 20260505205749 | 85 | 104 | 9.0 | 11.0 | 0.00 | 0.00 | 0.00 | 56 | 1015.9 |
| 20260505205247 | 85 | 358 | 3.0 | 3.0 | 0.00 | 0.00 | 0.00 | 57 | 1016.0 |
| 20260505204743 | 84 | 347 | 3.0 | 5.0 | 0.00 | 0.00 | 0.00 | 58 | 1015.7 |
| 20260505204242 | 84 | 116 | 4.0 | 6.0 | 0.00 | 0.00 | 0.00 | 59 | 1016.0 |
| 20260505203738 | 85 | 87 | 3.0 | 5.0 | 0.00 | 0.00 | 0.00 | 58 | 1015.9 |
| 20260505203235 | 86 | 17 | 3.0 | 5.0 | 0.00 | 0.00 | 0.00 | 56 | 1015.9 |
| 20260505202731 | 85 | 46 | 3.0 | 5.0 | 0.00 | 0.00 | 0.00 | 57 | 1016.0 |
| 20260505202227 | 85 | 167 | 6.0 | 8.0 | 0.00 | 0.00 | 0.00 | 57 | 1016.0 |
| 20260505201724 | 85 | 106 | 3.0 | 8.0 | 0.00 | 0.00 | 0.00 | 56 | 1016.0 |
| 20260505201222 | 85 | 347 | 3.0 | 5.0 | 0.00 | 0.00 | 0.00 | 55 | 1016.0 |
| 20260505200720 | 85 | 71 | 5.0 | 8.0 | 0.00 | 0.00 | 0.00 | 55 | 1016.1 |
| 20260505200216 | 86 | 65 | 3.0 | 3.0 | 0.00 | 0.00 | 0.00 | 52 | 1016.2 |
| 20260505195712 | 85 | 37 | 2.0 | 2.0 | 0.00 | 0.00 | 0.00 | 55 | 1015.9 |
| 20260505195209 | 85 | 43 | 4.0 | 6.0 | 0.00 | 0.00 | 0.00 | 55 | 1016.0 |
| 20260505194707 | 87 | 34 | 2.0 | 3.0 | 0.00 | 0.00 | 0.00 | 53 | 1016.1 |
| 20260505194203 | 86 | 7 | 3.0 | 3.0 | 0.00 | 0.00 | 0.00 | 51 | 1016.2 |
| 20260505193659 | 85 | 316 | 3.0 | 3.0 | 0.00 | 0.00 | 0.00 | 53 | 1016.3 |
| 20260505193157 | 87 | 333 | 3.0 | 6.0 | 0.00 | 0.00 | 0.00 | 51 | 1016.2 |
| 20260505192655 | 87 | 316 | 2.0 | 2.0 | 0.00 | 0.00 | 0.00 | 48 | 1016.2 |
| 20260505192152 | 86 | 117 | 6.0 | 7.0 | 0.00 | 0.00 | 0.00 | 51 | 1016.4 |
| 20260505191650 | 86 | 84 | 1.0 | 1.0 | 0.00 | 0.00 | 0.00 | 54 | 1016.4 |
| 20260505191148 | 87 | 4 | 2.0 | 3.0 | 0.00 | 0.00 | 0.00 | 51 | 1016.6 |
| 20260505190644 | 88 | 116 | 1.0 | 2.0 | 0.00 | 0.00 | 0.00 | 52 | 1016.5 |
| 20260505190144 | 86 | 119 | 6.0 | 9.0 | 0.00 | 0.00 | 0.00 | 53 | 1016.6 |
| 20260505185641 | 86 | 123 | 7.0 | 9.0 | 0.00 | 0.00 | 0.00 | 55 | 1016.7 |
| 20260505185137 | 86 | 133 | 4.0 | 10.0 | 0.00 | 0.00 | 0.00 | 55 | 1016.8 |
| 20260505184634 | 86 | 110 | 8.0 | 9.0 | 0.00 | 0.00 | 0.00 | 52 | 1017.1 |
| 20260505184131 | 86 | 143 | 7.0 | 8.0 | 0.00 | 0.00 | 0.00 | 54 | 1016.9 |
| 20260505183628 | 87 | 122 | 6.0 | 7.0 | 0.00 | 0.00 | 0.00 | 54 | 1017.2 |
| 20260505183126 | 85 | 240 | 3.0 | 3.0 | 0.00 | 0.00 | 0.00 | 54 | 1017.0 |
| 20260505182621 | 85 | 168 | 6.0 | 7.0 | 0.00 | 0.00 | 0.00 | 54 | 1016.9 |
| 20260505182118 | 86 | 58 | 4.0 | 6.0 | 0.00 | 0.00 | 0.00 | 53 | 1016.8 |
| 20260505181615 | 86 | 70 | 3.0 | 5.0 | 0.00 | 0.00 | 0.00 | 55 | 1017.0 |
| 20260505181112 | 86 | 209 | 1.0 | 1.0 | 0.00 | 0.00 | 0.00 | 52 | 1017.0 |
| 20260505180608 | 86 | 125 | 7.0 | 9.0 | 0.00 | 0.00 | 0.00 | 53 | 1017.2 |
| 20260505180106 | 85 | 51 | 3.0 | 6.0 | 0.00 | 0.00 | 0.00 | 54 | 1017.1 |
| 20260505175601 | 86 | 134 | 5.0 | 7.0 | 0.00 | 0.00 | 0.00 | 54 | 1017.0 |
| 20260505175058 | 86 | 234 | 1.0 | 1.0 | 0.00 | 0.00 | 0.00 | 51 | 1017.3 |
| 20260505174555 | 88 | 95 | 7.0 | 8.0 | 0.00 | 0.00 | 0.00 | 46 | 1017.2 |
| 20260505174051 | 87 | 119 | 2.0 | 2.0 | 0.00 | 0.00 | 0.00 | 52 | 1017.2 |
| 20260505173548 | 87 | 75 | 2.0 | 5.0 | 0.00 | 0.00 | 0.00 | 53 | 1017.2 |
| 20260505173044 | 86 | 16 | 2.0 | 2.0 | 0.00 | 0.00 | 0.00 | 54 | 1017.1 |
| 20260505172542 | 85 | 31 | 3.0 | 3.0 | 0.00 | 0.00 | 0.00 | 56 | 1017.2 |
| 20260505172038 | 86 | 194 | 5.0 | 6.0 | 0.00 | 0.00 | 0.00 | 53 | 1017.1 |
| 20260505171533 | 85 | 146 | 3.0 | 5.0 | 0.00 | 0.00 | 0.00 | 54 | 1017.1 |
| 20260505171031 | 86 | 157 | 5.0 | 6.0 | 0.00 | 0.00 | 0.00 | 55 | 1017.3 |
| 20260505170528 | 86 | 103 | 3.0 | 5.0 | 0.00 | 0.00 | 0.00 | 55 | 1017.4 |
| 20260505170024 | 85 | 5 | 1.0 | 1.0 | 0.00 | 0.00 | 0.00 | 56 | 1017.1 |
| 20260505165519 | 87 | 34 | 2.0 | 3.0 | 0.00 | 0.00 | 0.00 | 55 | 1017.3 |
| 20260505165015 | 85 | 11 | 2.0 | 3.0 | 0.00 | 0.00 | 0.00 | 56 | 1017.2 |
| 20260505164511 | 84 | 84 | 5.0 | 7.0 | 0.00 | 0.00 | 0.00 | 60 | 1017.0 |
| 20260505164009 | 85 | 178 | 9.0 | 14.0 | 0.00 | 0.00 | 0.00 | 59 | 1017.3 |
| 20260505163507 | 85 | 12 | 7.0 | 9.0 | 0.00 | 0.00 | 0.00 | 59 | 1017.3 |
| 20260505163003 | 84 | 188 | 3.0 | 3.0 | 0.00 | 0.00 | 0.00 | 61 | 1017.4 |
| 20260505162457 | 84 | 129 | 4.0 | 7.0 | 0.00 | 0.00 | 0.00 | 59 | 1017.4 |
| 20260505161954 | 85 | 100 | 3.0 | 5.0 | 0.00 | 0.00 | 0.00 | 59 | 1017.4 |
| 20260505161450 | 84 | 10 | 2.0 | 2.0 | 0.00 | 0.00 | 0.00 | 60 | 1017.2 |
| 20260505160948 | 85 | 52 | 5.0 | 6.0 | 0.00 | 0.00 | 0.00 | 58 | 1017.6 |
| 20260505160446 | 84 | 130 | 6.0 | 7.0 | 0.00 | 0.00 | 0.00 | 60 | 1017.3 |
| 20260505152916 | 83 | 45 | 6.0 | 8.0 | 0.00 | 0.00 | 0.00 | 65 | 1017.4 |
| 20260505152408 | 83 | 14 | 3.0 | 5.0 | 0.00 | 0.00 | 0.00 | 65 | 1017.3 |
| 20260505151907 | 84 | 158 | 2.0 | 2.0 | 0.00 | 0.00 | 0.00 | 65 | 1017.1 |
| 20260505151404 | 83 | 130 | 2.0 | 5.0 | 0.00 | 0.00 | 0.00 | 62 | 1017.2 |
| 20260505150900 | 84 | 28 | 1.0 | 1.0 | 0.00 | 0.00 | 0.00 | 65 | 1017.1 |
| 20260505150358 | 85 | 101 | 7.0 | 10.0 | 0.00 | 0.00 | 0.00 | 66 | 1017.1 |
| 20260505140323 | 82 | 57 | 3.0 | 5.0 | 0.00 | 0.00 | 0.00 | 70 | 1017.1 |
| 20260505130245 | 80 | 221 | 1.0 | 2.0 | 0.00 | 0.00 | 0.00 | 74 | 1016.8 |
| 20260505124731 | 79 | 113 | 5.0 | 9.0 | 0.00 | 0.00 | 0.00 | 76 | 1016.5 |
| 20260505124228 | 77 | 63 | 2.0 | 2.0 | 0.00 | 0.00 | 0.00 | 81 | 1016.6 |
| 20260505123723 | 78 | 357 | 0.0 | 1.0 | 0.00 | 0.00 | 0.00 | 82 | 1016.7 |
| 20260505123220 | 78 | 333 | 2.0 | 3.0 | 0.00 | 0.00 | 0.00 | 83 | 1016.8 |
| 20260505122716 | 75 | 330 | 0.0 | 0.0 | 0.00 | 0.00 | 0.00 | 88 | 1017.1 |
| 20260505122214 | 73 | 313 | 0.0 | 0.0 | 0.00 | 0.00 | 0.00 | 97 | 1017.1 |
| 20260505121710 | 72 | 303 | 1.0 | 1.0 | 0.00 | 0.00 | 0.00 | 99 | 1017.1 |
| 20260505121207 | 71 | 322 | 0.0 | 0.0 | 0.00 | 0.00 | 0.00 | 99 | 1017.1 |
| 20260505120703 | 71 | 339 | 0.0 | 0.0 | 0.00 | 0.00 | 0.00 | 99 | 1016.9 |
| 20260505120159 | 71 | 336 | 0.0 | 0.0 | 0.00 | 0.00 | 0.00 | 99 | 1016.7 |
| 20260505115652 | 71 | 337 | 0.0 | 0.0 | 0.00 | 0.00 | 0.00 | 99 | 1016.5 |
| 20260505115150 | 70 | 339 | 0.0 | 0.0 | 0.00 | 0.00 | 0.00 | 99 | 1016.7 |
| 20260505114642 | 69 | 342 | 0.0 | 0.0 | 0.00 | 0.00 | 0.00 | 99 | 1016.5 |
| 20260505114138 | 69 | 342 | 0.0 | 0.0 | 0.00 | 0.00 | 0.00 | 99 | 1016.4 |
| 20260505113635 | 67 | 336 | 0.0 | 0.0 | 0.00 | 0.00 | 0.00 | 99 | 1016.4 |
| 20260505113131 | 67 | 336 | 0.0 | 0.0 | 0.00 | 0.00 | 0.00 | 99 | 1016.3 |
| 20260505112627 | 66 | 336 | 0.0 | 0.0 | 0.00 | 0.00 | 0.00 | 99 | 1016.3 |
| 20260505112126 | 66 | 336 | 0.0 | 0.0 | 0.00 | 0.00 | 0.00 | 99 | 1016.1 |
| 20260505111620 | 66 | 336 | 0.0 | 0.0 | 0.00 | 0.00 | 0.00 | 99 | 1016.0 |
| 20260505111116 | 66 | 336 | 0.0 | 0.0 | 0.00 | 0.00 | 0.00 | 99 | 1016.1 |
| 20260505110612 | 65 | 336 | 0.0 | 0.0 | 0.00 | 0.00 | 0.00 | 99 | 1015.9 |
| 20260505110109 | 65 | 336 | 0.0 | 0.0 | 0.00 | 0.00 | 0.00 | 99 | 1015.8 |
| 20260505102045 | 65 | 336 | 0.0 | 0.0 | 0.00 | 0.00 | 0.00 | 99 | 1015.7 |
| 20260505101544 | 65 | 336 | 0.0 | 0.0 | 0.00 | 0.00 | 0.00 | 99 | 1015.6 |
| 20260505101039 | 65 | 336 | 0.0 | 0.0 | 0.00 | 0.00 | 0.00 | 99 | 1015.6 |
| 20260505100536 | 65 | 336 | 0.0 | 0.0 | 0.00 | 0.00 | 0.00 | 99 | 1015.5 |
| 20260505100033 | 65 | 336 | 0.0 | 0.0 | 0.00 | 0.00 | 0.00 | 99 | 1015.4 |
| 20260505095529 | 65 | 336 | 0.0 | 0.0 | 0.00 | 0.00 | 0.00 | 99 | 1015.2 |
| 20260505095026 | 65 | 336 | 0.0 | 0.0 | 0.00 | 0.00 | 0.00 | 99 | 1015.1 |
| 20260505094522 | 65 | 336 | 0.0 | 0.0 | 0.00 | 0.00 | 0.00 | 99 | 1015.4 |
| 20260505094018 | 65 | 336 | 0.0 | 0.0 | 0.00 | 0.00 | 0.00 | 99 | 1015.3 |
| 20260505093515 | 65 | 336 | 0.0 | 0.0 | 0.00 | 0.00 | 0.00 | 99 | 1015.0 |
| 20260505093013 | 65 | 336 | 0.0 | 0.0 | 0.00 | 0.00 | 0.00 | 99 | 1015.0 |
| 20260505092510 | 65 | 336 | 0.0 | 0.0 | 0.00 | 0.00 | 0.00 | 99 | 1015.1 |
| 20260505092008 | 65 | 336 | 0.0 | 0.0 | 0.00 | 0.00 | 0.00 | 99 | 1015.0 |
| 20260505091505 | 66 | 336 | 0.0 | 0.0 | 0.00 | 0.00 | 0.00 | 99 | 1015.2 |
| 20260505091003 | 65 | 336 | 0.0 | 0.0 | 0.00 | 0.00 | 0.00 | 99 | 1015.1 |
| 20260505090500 | 65 | 336 | 0.0 | 0.0 | 0.00 | 0.00 | 0.00 | 99 | 1014.9 |
| 20260505085958 | 65 | 336 | 0.0 | 0.0 | 0.00 | 0.00 | 0.00 | 99 | 1015.0 |
| 20260505085456 | 65 | 336 | 0.0 | 0.0 | 0.00 | 0.00 | 0.00 | 99 | 1015.0 |
| 20260505084954 | 65 | 336 | 0.0 | 0.0 | 0.00 | 0.00 | 0.00 | 99 | 1015.1 |
| 20260505084452 | 65 | 336 | 0.0 | 0.0 | 0.00 | 0.00 | 0.00 | 99 | 1014.8 |
| 20260505083949 | 65 | 336 | 0.0 | 0.0 | 0.00 | 0.00 | 0.00 | 99 | 1015.1 |
| 20260505083446 | 65 | 336 | 0.0 | 0.0 | 0.00 | 0.00 | 0.00 | 99 | 1015.1 |
| 20260505082943 | 66 | 336 | 0.0 | 0.0 | 0.00 | 0.00 | 0.00 | 99 | 1015.0 |
| 20260505082438 | 65 | 336 | 0.0 | 0.0 | 0.00 | 0.00 | 0.00 | 99 | 1014.8 |
| 20260505081936 | 66 | 336 | 0.0 | 0.0 | 0.00 | 0.00 | 0.00 | 99 | 1014.8 |
| 20260505081432 | 66 | 336 | 0.0 | 0.0 | 0.00 | 0.00 | 0.00 | 99 | 1015.0 |
| 20260505080929 | 66 | 336 | 0.0 | 0.0 | 0.00 | 0.00 | 0.00 | 99 | 1014.8 |
| 20260505080425 | 66 | 336 | 0.0 | 0.0 | 0.00 | 0.00 | 0.00 | 99 | 1015.0 |
| 20260505075920 | 66 | 336 | 0.0 | 0.0 | 0.00 | 0.00 | 0.00 | 99 | 1015.1 |
| 20260505075418 | 66 | 336 | 0.0 | 0.0 | 0.00 | 0.00 | 0.00 | 99 | 1015.0 |
| 20260505074915 | 66 | 336 | 0.0 | 0.0 | 0.00 | 0.00 | 0.00 | 99 | 1014.8 |
| 20260505074412 | 66 | 336 | 0.0 | 0.0 | 0.00 | 0.00 | 0.00 | 99 | 1014.9 |
| 20260505073909 | 66 | 334 | 0.0 | 0.0 | 0.00 | 0.00 | 0.00 | 99 | 1015.1 |
| 20260505073407 | 66 | 334 | 0.0 | 0.0 | 0.00 | 0.00 | 0.00 | 99 | 1015.2 |
| 20260505072904 | 66 | 334 | 0.0 | 0.0 | 0.00 | 0.00 | 0.00 | 99 | 1015.1 |
| 20260505072400 | 66 | 334 | 0.0 | 0.0 | 0.00 | 0.00 | 0.00 | 99 | 1015.3 |
| 20260505071856 | 66 | 334 | 0.0 | 0.0 | 0.00 | 0.00 | 0.00 | 99 | 1015.0 |
| 20260505071352 | 66 | 334 | 0.0 | 0.0 | 0.00 | 0.00 | 0.00 | 99 | 1015.3 |
| 20260505070851 | 66 | 334 | 0.0 | 0.0 | 0.00 | 0.00 | 0.00 | 99 | 1015.3 |
| 20260505070347 | 66 | 334 | 0.0 | 0.0 | 0.00 | 0.00 | 0.00 | 99 | 1015.4 |
| 20260505065842 | 66 | 334 | 0.0 | 0.0 | 0.00 | 0.00 | 0.00 | 99 | 1015.3 |
| 20260505065339 | 66 | 334 | 0.0 | 0.0 | 0.00 | 0.00 | 0.00 | 99 | 1015.4 |
| 20260505064836 | 67 | 334 | 0.0 | 0.0 | 0.00 | 0.00 | 0.00 | 99 | 1015.4 |
| 20260505064333 | 66 | 334 | 0.0 | 0.0 | 0.00 | 0.00 | 0.00 | 99 | 1015.6 |
| 20260505063832 | 67 | 334 | 0.0 | 0.0 | 0.00 | 0.00 | 0.00 | 99 | 1015.5 |
| 20260505063327 | 67 | 334 | 0.0 | 0.0 | 0.00 | 0.00 | 0.00 | 99 | 1015.5 |
| 20260505062824 | 67 | 334 | 0.0 | 0.0 | 0.00 | 0.00 | 0.00 | 99 | 1015.7 |
| 20260505062322 | 66 | 334 | 0.0 | 0.0 | 0.00 | 0.00 | 0.00 | 99 | 1015.8 |
| 20260505061818 | 67 | 334 | 0.0 | 0.0 | 0.00 | 0.00 | 0.00 | 99 | 1015.9 |
| 20260505061316 | 67 | 334 | 0.0 | 0.0 | 0.00 | 0.00 | 0.00 | 99 | 1015.5 |
| 20260505060814 | 67 | 334 | 0.0 | 0.0 | 0.00 | 0.00 | 0.00 | 99 | 1015.5 |
| 20260505060310 | 67 | 334 | 0.0 | 0.0 | 0.00 | 0.00 | 0.00 | 99 | 1015.6 |
| 20260505055806 | 67 | 334 | 0.0 | 0.0 | 0.00 | 0.00 | 0.00 | 99 | 1015.9 |
| 20260505055303 | 67 | 334 | 0.0 | 0.0 | 0.00 | 0.00 | 0.00 | 99 | 1016.2 |
| 20260505054800 | 67 | 334 | 0.0 | 0.0 | 0.00 | 0.00 | 0.00 | 99 | 1016.2 |
| 20260505054257 | 67 | 334 | 0.0 | 0.0 | 0.00 | 0.00 | 0.00 | 99 | 1016.2 |
| 20260505053755 | 67 | 334 | 0.0 | 0.0 | 0.00 | 0.00 | 0.00 | 99 | 1016.5 |
| 20260505053252 | 67 | 334 | 0.0 | 0.0 | 0.00 | 0.00 | 0.00 | 99 | 1016.5 |
| 20260505052749 | 67 | 334 | 0.0 | 0.0 | 0.00 | 0.00 | 0.00 | 99 | 1016.3 |
| 20260505052246 | 67 | 334 | 0.0 | 0.0 | 0.00 | 0.00 | 0.00 | 99 | 1016.2 |
| 20260505051742 | 67 | 334 | 0.0 | 0.0 | 0.00 | 0.00 | 0.00 | 99 | 1016.4 |
| 20260505051241 | 68 | 334 | 0.0 | 0.0 | 0.00 | 0.00 | 0.00 | 98 | 1016.2 |
| 20260505050738 | 67 | 334 | 0.0 | 0.0 | 0.00 | 0.00 | 0.00 | 98 | 1016.4 |
| 20260505050237 | 67 | 334 | 0.0 | 0.0 | 0.00 | 0.00 | 0.00 | 98 | 1016.2 |
| 20260505041706 | 68 | 333 | 0.0 | 0.0 | 0.00 | 0.00 | 0.00 | 97 | 1016.6 |
| 20260505041203 | 69 | 333 | 0.0 | 0.0 | 0.00 | 0.00 | 0.00 | 97 | 1016.7 |
| 20260505040700 | 69 | 333 | 0.0 | 0.0 | 0.00 | 0.00 | 0.00 | 97 | 1016.5 |
| 20260505040158 | 69 | 333 | 0.0 | 0.0 | 0.00 | 0.00 | 0.00 | 96 | 1016.8 |
| 20260505035654 | 69 | 333 | 0.0 | 0.0 | 0.00 | 0.00 | 0.00 | 96 | 1016.5 |
| 20260505035150 | 69 | 333 | 0.0 | 0.0 | 0.00 | 0.00 | 0.00 | 96 | 1016.7 |
| 20260505034647 | 69 | 333 | 0.0 | 0.0 | 0.00 | 0.00 | 0.00 | 96 | 1016.9 |
| 20260505034144 | 69 | 333 | 0.0 | 0.0 | 0.00 | 0.00 | 0.00 | 96 | 1016.7 |
| 20260505033640 | 70 | 333 | 0.0 | 0.0 | 0.00 | 0.00 | 0.00 | 95 | 1016.8 |
| 20260505033139 | 70 | 333 | 0.0 | 0.0 | 0.00 | 0.00 | 0.00 | 95 | 1016.7 |
| 20260505032636 | 70 | 333 | 0.0 | 0.0 | 0.00 | 0.00 | 0.00 | 95 | 1016.8 |
| 20260505032132 | 70 | 333 | 0.0 | 0.0 | 0.00 | 0.00 | 0.00 | 95 | 1016.8 |
| 20260505031630 | 70 | 333 | 0.0 | 0.0 | 0.00 | 0.00 | 0.00 | 94 | 1016.8 |
| 20260505031126 | 70 | 333 | 0.0 | 0.0 | 0.00 | 0.00 | 0.00 | 94 | 1016.8 |
| 20260505030623 | 70 | 334 | 0.0 | 0.0 | 0.00 | 0.00 | 0.00 | 94 | 1016.7 |
| 20260505030119 | 71 | 333 | 0.0 | 0.0 | 0.00 | 0.00 | 0.00 | 93 | 1016.9 |